This demonstration page uses our WeatherBlox Daily Observations layout. Learn more.

Left ArrowRight Arrow

39.01783, -85.05884

Hourly Observations for September 21, 2020

Temp ( °F °C ) Dew Point ( °F °C ) Humidity (%) Winds ( mph kmh ) Pressure ( in mb ) Visibility ( mi km ) Precip ( " mm )
12:52 am 00:52 Clear 57 13.9 39 3.9 51 51 ENE 7 11 30.39 1029 10 16 0.00 0.00
1:52 am 01:52 Clear 56 13.3 41 5 57 57 ENE 7 11 30.38 1029 10 16 0.00 0.00
2:52 am 02:52 Clear 51 10.6 40 4.4 66 66 E 6 9 30.37 1029 10 16 0.00 0.00
3:52 am 03:52 Clear 50 10 39 3.9 66 66 E 9 15 30.36 1028 10 16 0.00 0.00
4:52 am 04:52 Clear 51 10.6 40 4.4 66 66 E 8 13 30.36 1028 10 16 0.00 0.00
5:52 am 05:52 Clear 49 9.4 39 3.9 69 69 Calm 30.39 1029 10 16 0.00 0.00
6:52 am 06:52 Clear 48 8.9 39 3.9 71 71 E 5 7 30.40 1029 10 16 0.00 0.00
7:52 am 07:52 Sunny 49 9.4 40 4.4 71 71 E 5 7 30.42 1030 10 16 0.00 0.00
8:52 am 08:52 Sunny 53 11.7 43 6.1 69 69 E 8 13 30.42 1030 10 16 0.00 0.00
9:52 am 09:52 Sunny 56 13.3 42 5.6 60 60 SE 9 15 30.42 1030 10 16 0.00 0.00
10:52 am 10:52 Sunny 61 16.1 43 6.1 52 52 SE 8 13 30.43 1031 10 16 0.00 0.00
11:52 am 11:52 Sunny 64 17.8 43 6.1 46 46 Calm 30.42 1030 10 16 0.00 0.00
12:52 pm 12:52 Sunny 68 20 42 5.6 39 39 SE 7 11 30.40 1029 10 16 0.00 0.00
1:52 pm 13:52 Sunny 70 21.1 42 5.6 37 37 E 10 17 30.38 1029 10 16 0.00 0.00
2:52 pm 14:52 Mostly Sunny 72 22.2 38 3.3 29 29 E 10 17 30.36 1028 10 16 0.00 0.00
3:52 pm 15:52 Mostly Sunny 73 22.8 39 3.9 29 29 VRB 6 9 30.33 1027 10 16 0.00 0.00
4:52 pm 16:52 Mostly Sunny 72 22.2 41 5 33 33 SE 6 9 30.31 1026 10 16 0.00 0.00
5:52 pm 17:52 Mostly Sunny 71 21.7 40 4.4 32 32 E 8 13 30.30 1026 10 16 0.00 0.00
6:52 pm 18:52 Mostly Sunny 69 20.6 41 5 36 36 ESE 7 11 30.30 1026 10 16 0.00 0.00
7:52 pm 19:52 Mostly Clear 64 17.8 43 6.1 46 46 ESE 8 13 30.30 1026 10 16 0.00 0.00
8:52 pm 20:52 Clear 63 17.2 44 6.7 50 50 ESE 6 9 30.30 1026 10 16 0.00 0.00
9:52 pm 21:52 Clear 60 15.6 44 6.7 56 56 SE 3 6 30.30 1026 10 16 0.00 0.00
10:52 pm 22:52 Clear 57 13.9 44 6.7 62 62 SE 8 13 30.30 1026 10 16 0.00 0.00
11:52 pm 23:52 Clear 55 12.8 45 7.2 69 69 SSE 7 11 30.29 1026 10 16 0.00 0.00

Powered by AerisWeather